Other Public Products
Issued by NWS Grand Forks, ND

Home | Current Version | Previous Version | Graphics & Text | Print | Product List | Glossary On
Versions: 1 2 3 4 5 6 7 8 9 10 11 12 13 14 15 16 17 18 19 20 21 22 23 24 25 26 27 28 29 30 31 32 33 34 35 36 37 38 39 40 41 42 43 44 45 46 47 48 49 50
000
FPUS83 KFGF 021131
OPUFGF
PRAIRIE TO PINES WEATHER ROUNDUP
NATIONAL WEATHER SERVICE EASTERN NORTH DAKOTA/GRAND FORKS ND
600 AM CDT THU JUL 02 2015

 **SATELLITE DATA USED TO AUGMENT SKY COVER AT AUTOMATED STATIONS**
 *****  WEATHER ACROSS EASTERN NORTH DAKOTA  *****

CITY           SKY/WX    TMP DP  RH WIND       PRES   REMARKS
GRAND FORKS    PTCLDY    57  55  93 SE6       29.95S
GRAND FORKS AF CLEAR     58  55  92 S7        29.95S
GRAND CITY NWS   N/A     57 N/A N/A S3          N/A
BUXTON         NOT AVBL
DEVILS LAKE    MOCLDY    66  61  82 S6        29.93S
FARGO          CLEAR     59  54  83 SE7       29.98S
WAHPETON ARPT  NOT AVBL
$$

 *****  WEATHER ACROSS CENTRAL AND WESTERN NORTH DAKOTA  *****

CITY           SKY/WX    TMP DP  RH WIND       PRES   REMARKS
JAMESTOWN      PTCLDY    62  59  90 S5        29.95R
BISMARCK       LGT RAIN  62  61  96 NE5       29.97S
MINOT          MOCLDY    62  60  93 SW6       29.95R FOG
MINOT AFB      CLEAR     57  57 100 W7        29.95R FOG
GARRISON         N/A     60  59  96 NW3       29.97R
WILLISTON      CLEAR     56  53  90 W3        30.00R
DICKINSON      PTCLDY    57  55  93 W6        30.01R FOG
HETTINGER      PTCLDY    55  53  93 NW6       30.04R FOG
$$

 *****  OTHER OBSERVATIONS NORTHEAST NORTH DAKOTA  *****

CITY           SKY/WX    TMP DP  RH WIND       PRES   REMARKS
WALHALLA       FAIR      63  63 100 MISG      29.93R
LANGDON        PTSUNNY   61  61 100 S7        29.95R FOG
CAVALIER       FAIR      61  59  94 S7        29.93S FOG
GRAFTON        FAIR      57  57 100 S7        29.95S FOG
CANDO          FOG       57  57 100 NW5       29.95R VSB<1/4
FORT TOTTEN    NOT AVBL
ROLLA          FOG       55  55 100 W3        29.96R VSB 1/4
RUGBY          NOT AVBL
 ***** THE ABOVE OBSERVATIONS ARE NON NWS ARE NOT QUALITY
        CONTROLLED AND MAY MIS-REPORT RAIN FOR SNOW...
$$

 *****  OTHER OBSERVATIONS SOUTHEAST NORTH DAKOTA *****

CITY           SKY/WX    TMP DP  RH WIND       PRES   REMARKS
COOPERSTOWN    NOT AVBL
VALLEY CITY    FAIR      59  59 100 S6        29.97R
OAKES            N/A     59  59 100 SE5       29.97S
GWINNER          N/A     61  61 100 SE5       29.98S
SHEYENNE NWR     N/A     56  54  94 E3        29.95
BUFFALO        NOT AVBL
WYNDMERE       NOT AVBL
 ***** THE ABOVE OBSERVATIONS ARE NON NWS ARE NOT QUALITY
       CONTROLLED AND MAY MIS-REPORT RAIN FOR SNOW...
$$

  *****  WEATHER ACROSS NORTHERN MINNESOTA  *****

CITY           SKY/WX    TMP DP  RH WIND       PRES   REMARKS
FLAG ISLAND    CLEAR     64  59  82 SW9       29.94S
WARROAD        CLEAR     59  55  88 S5        29.98R
ROSEAU         CLEAR     59  54  82 S6        29.97R
HALLOCK        CLEAR     57  55  94 S7        29.94S
THF RVR FALLS  PTCLDY    57  54  88 S6        29.99S
HALSTAD        NOT AVBL
FOSSTON        CLEAR     54  52  94 CALM      30.01S
BAUDETTE       CLEAR     60  55  83 W5        29.97R
WASKISH        CLEAR     66  59  77 SW8       30.00R
CROOKSTON      CLEAR     59  55  88 S7        29.98S
$$
  *****  WEATHER ACROSS CENTRAL AND WEST MINNESOTA  *****

CITY           SKY/WX    TMP DP  RH WIND       PRES   REMARKS
BEMIDJI        PTCLDY    58  55  89 S5        30.02S
PARK RAPIDS    PTCLDY    61  55  81 CALM      30.02S
WADENA           N/A     57  55  94 CALM      30.01F
DETROIT LAKES  CLEAR     59  54  82 S6        30.02R
MOORHEAD       CLEAR     55  54  94 SE7       29.99S
FERGUS FALLS   PTCLDY    57  54  88 SE5       30.01R
ELBOW LAKE     FAIR      55  53  93 S7        30.01S
MORRIS MN      MOCLDY    54  52  94 SE7       30.00F
STAPLES        PTCLDY    59  54  82 CALM      30.02F
WHEATON        PTCLDY    50  48  93 SE6       30.02S
$$
  *****  WEATHER ELSEWHERE ACROSS MINNESOTA  *****

CITY           SKY/WX    TMP DP  RH WIND       PRES   REMARKS
DULUTH         MOCLDY    58  52  80 CALM      30.03R
INTRNTL FALLS  CLEAR     54  53  97 SW3       29.97R
ELY            CLEAR     48  46  93 CALM      30.02R
CLOQUET        CLOUDY    55  54  94 CALM      30.05R
BRAINERD       CLOUDY    59  56  89 S3        30.04R
HIBBING        MOCLDY    49  48  97 CALM      30.03R
ALEXANDRIA     PTCLDY    57  53  86 S5        30.03F
SAINT CLOUD    CLEAR     50  49  96 CALM      30.04R
MINNEAPOLIS    CLEAR     57  54  89 CALM      30.04R
$$

  *****  WEATHER ACROSS SOUTH DAKOTA  *****

CITY           SKY/WX    TMP DP  RH WIND       PRES   REMARKS
SIOUX FALLS    CLOUDY    59  53  80 SE6       30.00S
BROOKINGS      CLOUDY    57  52  82 SE6       30.02S
WATERTOWN      CLOUDY    58  54  86 SE6       29.99S
HURON          LGT RAIN  60  57  89 SE12G18   29.96R
SISSETON         N/A     54  53  97 S5        29.98S
ABERDEEN       CLOUDY    63  57  81 S7        29.97R
MITCHELL       CLOUDY    61  58  90 SE8       29.96F
PIERRE         CLOUDY    67  67 100 E9        29.93R FOG
MOBRIDGE       TSTM      64  63  96 SW3       29.93S
RAPID CITY     CLEAR     63  61  93 N15       30.04R
$$

  *****  SOME WEATHER IN NEARBY STATES *****

CITY           SKY/WX    TMP DP  RH WIND       PRES   REMARKS
GLASGOW MT     CLEAR     57  53  86 W7        30.06R
GREAT FALLS MT CLEAR     55  50  83 SW6       30.20R
CHEYENNE WY    CLOUDY    54  53  97 NE15      30.27R
SCOTTSBLUFF NE MOCLDY    60  32  34 S5        30.12F
OMAHA NE       CLOUDY    65  59  81 VRB7      29.95R
DES MOINES IA  MOCLDY    60  53  77 NE10      29.96S
DAVENPORT IA   CLEAR     54  50  86 NE8       29.99R
CHICAGO IL     CLOUDY    55  53  93 NE12      29.99R FOG
EAU CLAIRE WI  CLEAR     49  49 100 CALM      30.05R
LA CROSSE WI   CLOUDY    53  52  96 E5        30.05S FOG
$$

  *****  SOME NATIONAL WEATHER *****

CITY           SKY/WX    TMP DP  RH WIND       PRES   REMARKS
LA GUARDIA NY  MOSUNNY   71  57  61 NW5       29.89R
RALEIGH NC     CLOUDY    74  70  87 SW5       29.92S FOG
ATLANTA GA     MOCLDY    68  63  84 SW6       30.04R
NEW ORLEANS LA CLOUDY    76  70  82 S7        30.06R
OKLAHOMA CITY  PTCLDY    76  69  79 SW10      29.89R
ALBUQUERQUE NM MOCLDY    75  52  44 E8        30.13S
SALT LAKE CITY MOCLDY    76  51  41 S5        30.02R
LOS ANGELES CA MOCLDY    67  61  81 NW3       29.94F
BOISE ID       CLEAR     72  50  45 S3        29.98R
SEATTLE WA     CLEAR     68  53  58 CALM      30.00R
$$

*** WEATHER ACROSS MANITOBA...SASKATCHEWAN AND ONTARIO ***
                ***ONTARIO***

CITY           SKY/WX    TMP DP  RH WIND       PRES   REMARKS
GERALDTON      CLEAR     46  45  93 CALM      29.99R FOG
THUNDER BAY    PTCLDY    48  46  93 W2        30.00R
SIOUX LOOKOUT  MOCLDY    59  59 100 SE3       29.94F
TORONTO        MOSUNNY   57  52  82 N8        29.97R
BIG TROUT LK   MOCLDY    54  50  87 SE3       29.89S
PICKLE LAKE    MOCLDY    54  54 100 E2        29.93
DRYDEN         CLEAR     61  55  82 SW9       29.95R
KENORA         MOCLDY    63  63 100 SW6       29.96R FOG
$$
                *** MANITOBA***

CITY           SKY/WX    TMP DP  RH WIND       PRES   REMARKS
BRANDON        FOG       54  54 100 W6        29.93R VSB 1/4
DAUPHIN        CLEAR     63  61  94 SW9       29.89R FOG
ISLAND LAKE    PTCLDY    63  55  77 S3        29.84F
PILOT MOUND      N/A     57  55  94 S3          N/A
THE PAS        CLOUDY    63  61  94 W5        29.90R SMOKE
THOMPSON       LGT RAIN  57  50  77 VRB2      29.80F
WINNIPEG       PTCLDY    61  59  94 S5        29.91S
LYNN LAKE      CLOUDY    59  54  82 W7        29.79S
CHURCHILL      LGT RAIN  59  57  94 W8        29.68F
GILLAM         MOCLDY    61  48  63 S8        29.77F
$$
                ***SASKATCHEWAN***

CITY           SKY/WX    TMP DP  RH WIND       PRES   REMARKS
ESTEVAN        FOG       55  55 100 NW5       29.98R VSB 1/4
KINDERSLEY     MOCLDY    57  57 100 NW6       30.08S SMOKE
LLOYDMINSTER   CLEAR     55  54  94 W6        30.07R FOG
PRINCE ALBERT    N/A     57  57 100 CALM      29.98R FOG
REGINA         PTCLDY    54  54 100 W5        30.00S FOG



USA.gov is the U.S. government's official web portal to all federal, state and local government web resources and services.